Location: Austin
(30.3000°N, 97.7500°W)
Time: 11:15:05
(UTC-05:00)

Helios 1A Rocket - Pass Details

Date: 15 May 2026
Orbit: 399 x 409 km, 98.3° (Epoch: 11 June)

Event Time Altitude Azimuth Distance (km) Brightness Sun altitude
Rises 21:25:44 0° 14° (NNE) 2,318 6.3 -13.8°
Reaches altitude 10° 21:27:44 10° 17° (NNE) 1,453 5.2 -14.1°
Maximum altitude 21:30:49 71° 102° (ESE) 425 2.0 -14.7°
Enters shadow 21:33:24 14° 186° (S) 1,241 4.4 -15.2°
